TimeEST,TemperatureF,Dew PointF,Humidity,Sea Level PressureIn,VisibilityMPH,Wind Direction,Wind SpeedMPH,Gust SpeedMPH,PrecipitationIn,Events,Conditions,WindDirDegrees,DateUTC
12:05 AM,33.8,33.8,100,30.18,1.2,Calm,Calm,-,N/A,,Mist,0,2012-11-21 05:05:00
12:25 AM,32.0,32.0,100,30.17,0.5,Calm,Calm,-,N/A,Snow,Light Snow,0,2012-11-21 05:25:00
12:45 AM,32.0,32.0,100,30.17,0.5,Calm,Calm,-,N/A,Snow,Light Snow,0,2012-11-21 05:45:00
1:05 AM,32.0,32.0,100,30.16,0.2,Calm,Calm,-,N/A,Fog,Light Freezing Fog,0,2012-11-21 06:05:00
1:30 AM,32.0,32.0,100,30.17,0.2,Calm,Calm,-,N/A,Fog,Light Freezing Fog,0,2012-11-21 06:30:00
1:50 AM,32.0,32.0,100,30.17,0.5,Calm,Calm,-,N/A,Fog,Fog,0,2012-11-21 06:50:00
2:10 AM,32.0,32.0,100,30.18,0.2,Calm,Calm,-,N/A,Fog,Light Freezing Fog,0,2012-11-21 07:10:00
2:30 AM,30.2,30.2,100,30.18,0.2,Calm,Calm,-,N/A,Fog,Light Freezing Fog,0,2012-11-21 07:30:00
2:55 AM,30.2,30.2,100,30.18,0.2,Calm,Calm,-,N/A,Fog,Light Freezing Fog,0,2012-11-21 07:55:00
3:15 AM,32.0,32.0,100,30.18,0.2,Calm,Calm,-,N/A,Fog,Light Freezing Fog,0,2012-11-21 08:15:00
3:35 AM,32.0,32.0,100,30.18,0.2,Calm,Calm,-,N/A,Fog,Light Freezing Fog,0,2012-11-21 08:35:00
4:00 AM,32.0,32.0,100,30.18,0.2,Calm,Calm,-,N/A,Fog,Fog,0,2012-11-21 09:00:00
4:20 AM,32.0,32.0,100,30.19,0.2,Calm,Calm,-,N/A,Fog,Light Freezing Fog,0,2012-11-21 09:20:00
4:40 AM,32.0,32.0,100,30.19,0.2,Calm,Calm,-,N/A,Fog,Fog,0,2012-11-21 09:40:00
5:00 AM,32.0,32.0,100,30.19,0.2,Calm,Calm,-,N/A,Fog,Fog,0,2012-11-21 10:00:00
5:25 AM,32.0,32.0,100,30.20,0.2,Calm,Calm,-,N/A,Fog,Light Freezing Fog,0,2012-11-21 10:25:00
5:45 AM,32.0,32.0,100,30.20,0.2,Calm,Calm,-,N/A,Fog,Light Freezing Fog,0,2012-11-21 10:45:00
5:50 AM,32.0,32.0,100,30.20,0.2,Calm,Calm,-,N/A,Fog,Light Freezing Fog,0,2012-11-21 10:50:00
6:50 AM,30.2,30.2,100,30.22,0.0,Calm,Calm,-,N/A,Fog,Fog,0,2012-11-21 11:50:00
7:55 AM,30.2,30.2,100,30.24,0.5,Calm,Calm,-,N/A,Fog,Fog,0,2012-11-21 12:55:00
8:17 AM,32.0,32.0,100,30.24,5.0,Calm,Calm,-,N/A,,Clear,0,2012-11-21 13:17:00
9:48 AM,44.6,39.2,81,30.26,5.0,Calm,Calm,-,N/A,,Clear,0,2012-11-21 14:48:00
10:46 AM,50.0,41.0,71,30.26,5.0,North,3.5,-,N/A,,Clear,10,2012-11-21 15:46:00
11:55 AM,55.4,39.2,54,30.23,10.0,North,4.6,-,N/A,,Clear,10,2012-11-21 16:55:00
12:50 PM,55.4,37.4,51,30.22,10.0,North,5.8,-,N/A,,Clear,360,2012-11-21 17:50:00
1:50 PM,57.2,35.6,44,30.20,10.0,NNE,6.9,-,N/A,,Clear,20,2012-11-21 18:50:00
2:50 PM,57.2,35.6,44,30.20,10.0,NE,4.6,-,N/A,,Clear,50,2012-11-21 19:50:00
3:45 PM,55.4,32.0,41,30.20,10.0,NNE,5.8,-,N/A,,Clear,30,2012-11-21 20:45:00
4:50 PM,48.2,30.2,50,30.20,10.0,NE,5.8,-,N/A,,Clear,40,2012-11-21 21:50:00
5:50 PM,39.2,32.0,75,30.23,10.0,Calm,Calm,-,N/A,,Clear,0,2012-11-21 22:50:00
6:45 PM,37.4,32.0,81,30.24,10.0,Calm,Calm,-,N/A,,Clear,0,2012-11-21 23:45:00
7:55 PM,33.8,32.0,93,30.25,10.0,Calm,Calm,-,N/A,,Clear,0,2012-11-22 00:55:00
8:15 PM,32.0,32.0,100,30.25,10.0,Calm,Calm,-,N/A,,Clear,0,2012-11-22 01:15:00
8:35 PM,32.0,32.0,100,30.25,10.0,Calm,Calm,-,N/A,,Clear,0,2012-11-22 01:35:00
8:55 PM,32.0,32.0,100,30.25,10.0,Calm,Calm,-,N/A,,Clear,0,2012-11-22 01:55:00
9:20 PM,30.2,30.2,100,30.25,10.0,Calm,Calm,-,N/A,Snow,Light Snow,0,2012-11-22 02:20:00
9:40 PM,32.0,32.0,100,30.26,7.0,Calm,Calm,-,N/A,Snow,Light Snow,0,2012-11-22 02:40:00
10:00 PM,30.2,30.2,100,30.25,10.0,Calm,Calm,-,N/A,Snow,Light Snow,0,2012-11-22 03:00:00
10:25 PM,30.2,30.2,100,30.25,10.0,Calm,Calm,-,N/A,Snow,Light Snow,0,2012-11-22 03:25:00
10:45 PM,30.2,30.2,100,30.25,7.0,Calm,Calm,-,N/A,Snow,Light Snow,0,2012-11-22 03:45:00
11:05 PM,28.4,28.4,100,30.25,7.0,Calm,Calm,-,N/A,Snow,Light Snow,0,2012-11-22 04:05:00
11:25 PM,28.4,28.4,100,30.25,7.0,Calm,Calm,-,N/A,,Clear,0,2012-11-22 04:25:00
11:50 PM,30.2,30.2,100,30.26,7.0,Calm,Calm,-,N/A,Snow,Light Snow,0,2012-11-22 04:50:00